Volver al catálogo

STARLINK-6317

ActivoComunicacionesVLEO
NORAD 56526·PAYLOAD·🇺🇸 United States

Lanzado May 14, 2023 desde Cape Canaveral Space Force Station

Loading…

Próximos Pases (próximas 24 horas)

TLE

ActualizadoSource: CelesTrak SupGP

Época: Sep 14, 2026, 21:45 UTC

1 56526C 23065Z   26257.90673611  .00025638  00000+0  92949-3 0  2571
2 56526  43.0020 224.2656 0001655 259.0820  95.8085 15.27534460    18

Sigue STARLINK-6317 en tiempo real con AllMySat

Download on the App Store